Home   Weather   Mesquite   Past weeks

Flag for USA Past Weather in Mesquite, Texas, USA — Yesterday and Last 2 Weeks

Now
50 °F

Fog.


Feels Like: 48 °F
Forecast: 45 / 65 °F
Wind: 6 mph from South

Location: Mesquite Metro Airport

Current Time: Jan 19, 2017 at 9:34:19 am

Latest Report: Jan 19, 2017 at 8:50 am


Visibility: 2 mi

Pressure: 29.86 "Hg

Humidity: 100%

Dew Point: 50 °F

Location of MesquiteLocation

Past Weather in Mesquite — Graph

°F

Mesquite Temperature Yesterday

Maximum temperature yesterday: 50 °F (at 3:50 pm)
Minimum temperature yesterday: 46 °F (at 12:35 am)
Average temperature yesterday: 48 °F

High & Low Weather Summary for the Past Weeks

 TemperatureHumidityPressure
High79 °F (Jan 10, 2:50 pm)100% (Jan 5, 7:50 am)30.80 "Hg (Jan 5, 7:50 am)
Low15 °F (Jan 7, 2:35 am)20% (Jan 8, 3:50 pm)29.84 "Hg (Jan 11, 3:50 pm)
Average45 °F78%30.19 "Hg
* Reported Jan 4 7:50 am — Jan 19 7:50 am, Mesquite, Weather by CustomWeather, © 2017

Note: Actual official high and low records may vary slightly from our data, if they occured in-between our weather recording intervals... More about our weather records

Advertising

Mesquite Weather History for the Previous 24 Hours

Scroll right to see more
 ConditionsComfort  
Time TempWeatherWind HumidityBarometerVisibility
7:50 am
Thu, Jan 19
50 °FFog.No wind94%29.84 "Hg4 mi
6:50 am50 °FFog.No wind100%29.85 "Hg4 mi
6:35 am50 °FLow clouds.No wind98%29.84 "Hg3 mi
5:55 am50 °FLow clouds.No wind99%29.86 "Hg2 mi
5:15 am50 °FMostly cloudy.No wind99%29.88 "Hg3 mi
4:55 am50 °FOvercast.No wind99%29.89 "Hg2 mi
4:15 am50 °FMostly cloudy.No wind99%29.91 "Hg3 mi
3:55 am50 °FOvercast.No wind99%29.92 "Hg3 mi
3:15 am50 °FOvercast.No wind99%29.92 "Hg3 mi
2:55 am50 °FOvercast.No wind99%29.92 "Hg3 mi
2:15 am50 °FOvercast.No wind99%29.94 "Hg4 mi
1:35 am50 °FMostly cloudy.No wind99%29.96 "Hg4 mi
12:55 am50 °FMostly cloudy.No wind98%29.96 "Hg4 mi
12:15 am50 °FOvercast.No wind99%29.97 "Hg4 mi
11:55 pm
Wed, Jan 18
50 °FMostly cloudy.No wind99%29.97 "Hg3 mi
11:15 pm50 °FMostly cloudy.No wind98%29.98 "Hg4 mi
10:55 pm50 °FMostly cloudy.No wind99%29.99 "Hg5 mi
10:15 pm50 °FLow clouds.No wind99%30.00 "Hg4 mi
9:35 pm50 °FLow clouds.No wind99%30.00 "Hg5 mi
8:55 pm50 °FOvercast.No wind99%30.00 "Hg7 mi
7:50 pm50 °FOvercast.3 mph94%30.01 "Hg7 mi
6:50 pm50 °FMostly cloudy.5 mph94%30.01 "Hg7 mi
5:50 pm50 °FMostly cloudy.5 mph100%30.01 "Hg7 mi
4:50 pm50 °FFog.5 mph100%30.01 "Hg5 mi
3:50 pm50 °FFog.6 mph100%30.04 "Hg2 mi
2:50 pm48 °FFog.5 mph100%30.04 "Hg4 mi
1:50 pm48 °FLow clouds.8 mph100%30.04 "Hg7 mi
12:50 pm48 °FLow clouds.9 mph100%30.08 "Hg10 mi
11:50 am48 °FLow clouds.7 mph100%30.09 "Hg10 mi
10:50 am48 °FLow clouds.7 mph100%30.12 "Hg10 mi
9:50 am46 °FLow clouds.3 mph100%30.09 "Hg7 mi
Weather by CustomWeather, © 2017

See weather overviewHow to use our weather pages